Wind_Speed
30 30 30 32 32 31 30 29 28 28 27 29 29 30 30 32 34 36 37 37 38 40 41 43 43 43 43 43 45 45 44 44 46 46 46 45 43 42 43 43 43 42 42
24 24 24 24 26 28 28 29 30 31 31 31 31 31 32 35 38 40 42 43 43 43 45 46 48 49 48 47 47 47 46 45 46 47 49 48 46 45 45 44 43 43 44
20 21 21 23 25 28 29 30 31 32 33 34 33 33 34 38 42 44 46 48 48 48 48 50 51 53 53 52 51 52 52 51 50 50 50 50 49 49 48 46 44 44 44
19 19 20 22 23 25 27 28 30 31 33 34 34 34 37 40 45 48 50 52 52 53 54 55 56 57 57 56 55 55 55 55 54 54 54 53 51 50 49 47 46 46 46
20 20 21 23 24 25 26 27 27 28 29 31 33 35 37 42 46 49 52 54 55 57 58 59 59 60 61 61 60 60 59 59 59 58 57 55 54 52 50 47 47 46 46
22 24 25 27 28 30 31 32 32 33 33 35 36 39 41 44 47 50 53 55 57 59 60 61 61 62 62 63 64 65 64 63 62 61 60 59 59 54 52 50 48 46 43
28 29 31 33 34 36 37 38 39 40 41 42 43 44 46 48 51 53 55 57 58 59 60 62 63 64 65 65 67 68 67 66 66 64 64 62 62 59 55 51 48 47 45
35 36 37 38 39 40 40 41 43 43 44 46 48 51 53 55 56 57 58 59 61 61 63 65 67 68 69 70 71 72 71 72 73 72 67 63 59 55 53 49 49 48 47
38 39 39 39 39 40 40 41 43 44 45 47 48 51 53 54 55 56 59 61 62 63 64 65 66 68 70 72 73 74 74 74 73 72 70 65 58 50 48 48 49 47 47
39 38 38 39 40 41 42 44 47 48 49 50 51 52 53 55 56 57 59 60 62 64 65 66 68 70 73 75 77 76 73 72 69 68 65 60 55 49 46 47 46 46 45
43 43 45 46 48 49 51 53 54 54 54 54 53 52 53 55 56 58 59 61 63 64 66 69 71 74 75 76 78 75 73 70 66 64 61 53 44 44 46 46 46 45 45
48 50 51 52 53 54 54 53 52 50 49 50 51 52 54 57 60 62 63 64 66 67 68 71 73 74 74 76 77 76 72 67 61 58 56 50 45 45 46 45 44 44 44
52 53 52 50 50 49 48 46 47 49 51 53 55 57 59 61 63 65 67 69 72 72 72 73 74 74 73 73 73 72 69 65 60 54 53 51 48 47 47 48 47 45 44
49 47 46 45 45 46 47 49 52 53 54 56 57 58 60 63 65 67 70 72 75 76 77 79 79 78 76 74 72 70 69 66 63 58 55 54 50 48 49 47 47 45 42
49 49 48 48 49 50 51 51 52 53 53 55 57 58 60 61 63 65 68 71 74 77 79 80 80 80 79 76 73 71 67 66 66 64 60 57 51 48 49 48 51 48 43
54 55 54 53 53 53 53 52 51 51 51 51 52 54 56 59 61 64 66 69 71 74 77 79 80 80 78 74 71 70 68 66 68 68 62 61 55 49 49 49 53 48 45
56 57 58 58 58 59 58 57 55 54 54 54 54 55 57 59 60 62 63 66 69 72 74 76 77 77 74 70 69 71 72 70 68 64 61 62 59 52 49 49 51 46 45
56 56 57 58 60 61 61 61 60 60 59 58 58 59 60 60 61 61 62 63 64 66 69 71 72 71 68 68 69 68 70 71 68 65 60 60 57 52 48 48 50 46 44
56 58 60 62 63 63 62 62 61 61 62 61 60 60 62 62 62 62 62 63 63 64 65 66 67 68 66 64 62 61 64 65 61 61 57 52 51 47 46 46 47 47 44
57 59 62 63 64 64 63 62 62 62 62 62 63 64 64 65 64 64 64 64 64 64 64 63 65 67 65 61 56 54 60 61 55 52 49 42 44 42 40 44 45 45 45
60 61 62 63 65 66 66 65 63 63 63 64 65 67 67 68 68 68 68 67 66 65 64 63 62 61 58 56 49 45 51 58 56 47 42 35 36 37 35 38 42 44 45
63 64 65 66 65 65 64 64 64 65 66 66 67 69 71 72 72 70 68 67 67 67 66 64 61 58 53 50 51 48 44 48 51 47 39 33 35 35 35 36 39 42 42
68 68 67 66 63 62 62 63 66 67 68 69 71 73 74 75 74 71 68 66 66 66 64 61 58 54 49 47 48 50 46 44 44 43 42 39 35 35 37 35 37 40 39
71 68 64 62 60 62 63 67 70 71 73 75 77 78 77 75 72 69 65 63 62 61 58 55 54 50 44 43 43 44 47 48 42 38 37 39 31 29 35 34 35 38 37
67 61 58 59 61 64 68 72 77 80 81 81 80 78 75 71 68 65 62 60 60 59 53 49 48 45 40 41 42 40 44 47 43 38 38 37 31 28 30 32 35 35 33
59 58 60 63 66 71 75 80 83 85 84 80 75 73 71 69 66 64 62 60 58 56 52 48 45 41 37 37 39 40 41 42 41 39 39 35 29 29 30 32 37 37 34
Wind_Direction
261 263 264 266 269 270 270 270 269 267 269 271 271 267 261 259 262 267 275 280 284 288 290 291 293 296 299 302 304 305 307 309 310 310 308 307 304 300 297 297 297 296 292
260 262 263 265 267 268 268 267 267 267 269 269 268 264 258 258 261 266 271 277 283 288 291 291 289 290 291 293 295 298 299 300 304 305 305 304 302 299 295 294 293 292 291
257 260 263 264 264 265 266 266 266 266 267 270 272 269 263 263 265 269 273 276 280 283 287 288 287 287 289 292 294 296 298 299 302 302 302 300 300 298 295 292 290 289 288
266 270 272 273 272 272 272 271 270 268 266 266 265 263 261 261 264 268 272 275 279 282 286 287 287 287 289 291 293 294 295 296 298 300 299 298 296 295 293 290 288 287 286
270 272 273 274 274 274 274 273 271 270 270 270 268 266 264 264 267 271 275 278 281 283 286 288 288 290 292 292 293 294 294 296 297 298 297 296 294 292 290 288 285 283 283
276 278 278 277 276 276 276 276 276 276 276 274 273 273 274 275 276 277 279 281 283 286 288 290 290 291 291 292 291 292 292 293 293 294 294 293 292 289 287 287 283 280 279
281 282 282 280 278 276 275 274 274 275 276 276 277 277 277 277 279 280 281 282 284 286 286 286 287 288 288 288 288 289 289 290 291 292 292 292 290 288 286 286 284 281 279
277 277 276 276 276 277 277 277 277 279 280 282 283 283 283 282 281 281 281 282 283 284 285 286 288 288 288 288 288 288 289 290 291 291 290 288 288 286 285 284 283 283 280
277 278 279 280 282 283 283 283 283 284 284 285 285 285 284 283 283 282 281 280 281 281 282 283 283 284 284 285 286 289 291 292 293 293 292 291 289 285 283 282 283 283 283
282 287 291 292 290 287 286 285 284 284 284 285 283 282 281 281 281 281 282 281 281 281 281 280 281 281 282 283 285 287 289 291 294 295 293 290 287 280 279 281 283 283 281
295 296 294 291 289 289 289 288 287 286 285 283 282 282 281 281 281 279 278 279 280 280 279 279 280 282 284 285 286 288 289 290 292 293 291 286 284 285 286 284 282 280 280
295 293 291 291 291 290 288 287 284 282 281 280 279 279 279 279 280 280 280 280 280 279 279 280 281 282 284 285 287 288 288 288 288 290 289 286 281 281 283 283 282 280 278
291 291 291 290 289 288 287 285 283 282 282 280 280 279 278 277 277 278 279 279 279 280 280 279 279 280 281 282 284 285 286 286 284 283 284 280 277 277 278 280 279 277 275
291 290 289 289 287 286 286 286 286 284 282 281 279 278 276 275 275 275 275 275 276 278 279 280 280 281 281 282 282 282 283 284 284 281 277 277 275 277 277 278 277 277 273
291 291 291 289 288 288 287 286 284 283 282 281 280 279 277 275 272 272 272 273 274 274 275 276 276 277 277 277 279 279 278 279 281 282 277 274 271 272 274 275 279 280 277
292 292 292 291 290 290 289 288 286 285 285 283 282 280 278 276 275 275 274 273 272 272 273 273 273 274 275 275 274 275 276 276 279 280 277 273 269 267 268 271 275 277 276
290 291 293 294 294 294 294 294 293 293 292 290 289 287 285 283 282 280 277 276 275 274 273 273 273 274 274 274 272 270 273 274 276 277 274 272 267 262 262 266 270 272 275
294 294 294 294 294 295 296 296 296 296 295 294 293 292 291 290 288 286 284 281 279 277 275 274 272 273 274 274 272 269 270 273 273 276 274 272 264 258 260 265 269 271 273
296 296 295 295 295 295 295 295 295 294 294 293 292 292 292 291 290 288 287 285 282 280 277 275 273 272 274 274 273 271 269 271 271 274 272 271 264 257 257 261 267 273 272
297 296 296 297 297 296 294 293 293 292 293 294 294 295 295 295 294 292 290 288 285 283 281 278 277 275 275 272 273 274 269 268 268 273 272 268 262 258 255 258 262 269 274
298 298 299 300 299 298 296 294 293 292 293 293 295 295 296 296 296 295 293 291 288 286 282 280 280 279 278 271 271 273 272 267 266 269 271 265 258 257 261 260 260 264 270
300 300 300 299 298 297 295 293 291 291 292 293 295 296 297 297 296 294 291 289 288 285 283 282 282 281 280 275 269 265 267 268 265 263 261 261 261 262 264 264 262 265 269
300 300 298 296 294 293 293 293 293 293 294 296 297 297 297 295 293 291 288 285 285 284 284 283 281 279 277 273 267 262 260 262 264 260 256 258 265 266 262 263 264 264 266
295 295 294 294 294 295 296 296 296 296 297 297 297 295 293 291 288 286 285 283 283 285 286 283 279 278 274 268 262 258 260 260 258 257 253 256 261 269 262 259 264 263 262
294 294 294 294 295 296 298 299 299 299 299 298 296 294 291 288 285 282 280 280 281 284 286 283 280 277 271 266 261 253 252 255 253 255 257 260 262 266 263 264 267 263 262
292 294 296 297 298 300 301 301 301 301 301 299 296 293 291 288 284 280 277 276 278 281 285 284 280 276 270 262 260 257 250 248 246 254 259 259 258 268 273 275 270 264 262
Height
5842 5841 5841 5840 5840 5840 5839 5839 5838 5838 5835 5833 5832 5831 5830 5828 5827 5825 5822 5820 5817 5814 5812 5809 5805 5801 5798 5794 5790 5785 5781 5777 5771 5766 5761 5756 5751 5745 5740 5736 5732 5727 5722
5837 5835 5835 5834 5834 5834 5834 5833 5832 5831 5828 5826 5824 5823 5821 5820 5817 5816 5814 5812 5810 5808 5805 5801 5797 5792 5788 5784 5779 5774 5769 5766 5761 5757 5753 5749 5745 5738 5732 5727 5723 5718 5713
5831 5830 5829 5829 5828 5828 5827 5826 5824 5822 5821 5820 5819 5817 5816 5815 5812 5810 5807 5804 5801 5798 5795 5791 5787 5783 5779 5776 5772 5767 5764 5759 5754 5748 5743 5739 5735 5730 5723 5717 5712 5707 5703
5826 5825 5825 5824 5824 5823 5821 5820 5818 5816 5814 5812 5810 5808 5807 5806 5803 5799 5796 5793 5790 5787 5784 5781 5777 5773 5770 5766 5763 5758 5754 5749 5744 5739 5734 5729 5724 5719 5714 5708 5702 5697 5692
5821 5821 5820 5819 5818 5817 5816 5814 5811 5809 5806 5804 5802 5800 5798 5795 5793 5791 5788 5784 5781 5778 5775 5772 5768 5765 5761 5757 5753 5749 5744 5740 5735 5729 5724 5719 5713 5707 5703 5698 5693 5687 5682
5817 5816 5815 5814 5813 5812 5810 5808 5806 5804 5801 5798 5796 5793 5791 5789 5787 5784 5780 5776 5773 5770 5767 5763 5758 5754 5750 5746 5741 5737 5732 5728 5723 5717 5711 5706 5700 5694 5688 5685 5681 5677 5675
5811 5810 5808 5808 5806 5805 5803 5801 5798 5796 5793 5791 5788 5786 5784 5781 5778 5774 5770 5766 5762 5759 5754 5749 5745 5741 5736 5732 5727 5722 5719 5714 5709 5704 5698 5692 5686 5680 5676 5672 5669 5666 5664
5802 5801 5800 5798 5796 5795 5793 5791 5788 5786 5784 5781 5778 5776 5773 5769 5765 5761 5757 5753 5749 5744 5739 5735 5730 5725 5720 5716 5711 5707 5704 5700 5695 5689 5683 5677 5672 5666 5662 5659 5656 5655 5654
5795 5793 5790 5789 5787 5785 5783 5780 5777 5775 5772 5768 5764 5761 5758 5754 5750 5746 5742 5737 5733 5729 5725 5720 5715 5710 5705 5700 5695 5692 5689 5684 5679 5673 5667 5662 5658 5654 5649 5645 5644 5643 5642
5785 5783 5781 5780 5777 5774 5772 5769 5766 5763 5758 5754 5750 5746 5742 5739 5735 5732 5728 5724 5719 5714 5709 5705 5699 5695 5690 5684 5679 5676 5673 5667 5663 5658 5653 5647 5643 5640 5637 5634 5631 5629 5628
5776 5774 5771 5768 5764 5761 5758 5755 5751 5747 5742 5738 5734 5730 5726 5722 5719 5715 5711 5708 5704 5699 5695 5689 5685 5680 5675 5669 5663 5660 5657 5652 5648 5643 5637 5633 5630 5629 5627 5623 5619 5617 5615
5766 5763 5759 5755 5752 5749 5745 5741 5736 5731 5727 5723 5719 5714 5710 5706 5702 5698 5694 5691 5688 5684 5679 5674 5669 5666 5660 5654 5648 5644 5641 5638 5635 5629 5624 5621 5617 5616 5615 5612 5609 5606 5604
5751 5748 5745 5742 5739 5736 5732 5728 5722 5717 5714 5711 5706 5700 5694 5690 5685 5680 5676 5672 5668 5665 5661 5657 5653 5649 5644 5639 5633 5629 5626 5623 5621 5616 5612 5609 5604 5602 5601 5598 5597 5594 5592
5738 5735 5733 5730 5727 5723 5719 5713 5707 5703 5698 5693 5688 5683 5678 5673 5669 5665 5661 5656 5651 5646 5641 5636 5632 5627 5624 5620 5617 5613 5610 5607 5605 5602 5598 5595 5591 5590 5588 5585 5582 5580 5577
5726 5724 5721 5716 5712 5707 5701 5697 5692 5687 5682 5676 5670 5664 5659 5655 5650 5646 5641 5637 5632 5626 5621 5616 5612 5608 5604 5602 5598 5594 5591 5589 5587 5587 5585 5581 5579 5575 5573 5572 5569 5567 5564
5712 5707 5702 5697 5693 5688 5683 5678 5674 5668 5662 5657 5651 5646 5641 5635 5631 5626 5620 5615 5611 5606 5600 5596 5591 5587 5584 5583 5580 5576 5571 5570 5569 5570 5571 5569 5565 5562 5560 5558 5556 5557 5556
5697 5690 5683 5678 5672 5668 5665 5660 5654 5647 5641 5635 5631 5626 5620 5616 5611 5606 5601 5596 5591 5586 5581 5575 5570 5565 5562 5561 5559 5557 5552 5551 5554 5555 5556 5554 5550 5548 5547 5546 5544 5544 5546
5679 5673 5667 5661 5656 5651 5645 5639 5633 5627 5620 5615 5610 5605 5600 5595 5591 5586 5580 5574 5569 5564 5559 5555 5548 5544 5542 5539 5536 5534 5532 5531 5536 5539 5539 5536 5534 5533 5534 5535 5532 5531 5533
5660 5653 5646 5641 5637 5631 5624 5618 5611 5605 5599 5594 5588 5583 5579 5575 5570 5564 5558 5551 5546 5541 5536 5532 5527 5523 5523 5520 5516 5513 5512 5514 5519 5521 5522 5520 5519 5520 5521 5521 5521 5520 5520
5639 5632 5626 5620 5614 5608 5601 5595 5589 5583 5577 5571 5567 5562 5557 5551 5546 5540 5534 5529 5523 5518 5514 5510 5505 5503 5502 5501 5498 5496 5495 5497 5502 5506 5507 5506 5506 5507 5507 5508 5509 5510 5510
5617 5611 5605 5599 5592 5585 5579 5572 5566 5561 5556 5551 5546 5540 5533 5527 5521 5516 5510 5504 5499 5494 5491 5488 5486 5484 5483 5483 5481 5480 5481 5481 5485 5492 5493 5492 5491 5493 5494 5495 5497 5498 5498
5595 5588 5582 5576 5570 5563 5558 5553 5547 5541 5536 5531 5525 5519 5511 5504 5497 5491 5486 5480 5475 5470 5468 5468 5467 5466 5465 5464 5462 5465 5467 5468 5470 5475 5479 5478 5478 5479 5482 5483 5485 5486 5487
5574 5568 5563 5558 5551 5545 5538 5533 5527 5520 5515 5510 5504 5497 5489 5481 5473 5467 5463 5459 5453 5448 5447 5447 5448 5449 5448 5446 5444 5446 5451 5454 5457 5460 5464 5465 5464 5466 5469 5471 5473 5475 5478
5552 5546 5542 5538 5532 5526 5519 5511 5504 5498 5494 5488 5481 5473 5465 5457 5450 5444 5440 5439 5435 5431 5429 5429 5430 5431 5432 5430 5427 5427 5432 5438 5443 5445 5448 5451 5452 5455 5458 5460 5462 5464 5467
5534 5528 5522 5518 5513 5507 5501 5492 5482 5475 5468 5460 5452 5444 5437 5432 5428 5424 5422 5420 5418 5414 5413 5411 5412 5414 5415 5414 5412 5410 5415 5421 5427 5431 5435 5438 5440 5444 5447 5450 5451 5453 5456
5515 5510 5504 5499 5492 5486 5478 5468 5457 5448 5439 5432 5424 5417 5411 5407 5404 5403 5403 5401 5400 5399 5397 5395 5395 5397 5399 5400 5399 5398 5401 5406 5412 5417 5420 5426 5429 5432 5436 5438 5441 5443 5447